Satellite-Ground Cal/Val Region Overpasses Predictions

Prediction of Satellite NPP Overpassing Cal/Val Region: PacNW

Region Location: (Latitude: 10.00, Longitude: 139.50) to (Latitude: 22.70, Longitude: 165.60).

Table of predicted overpasses for the next 14.0 days since TLE Epoch: 1/11/2016
Interval Starting Time Starting Location Ending Time Ending Location
1 01/12/2016 03:19:25 ( 10.01, 150.33) 01/12/2016 03:23:01 ( 22.69, 147.32)
2 01/12/2016 15:51:17 ( 22.69, 147.56) 01/12/2016 15:54:53 ( 10.01, 144.54)
3 01/13/2016 03:00:22 ( 10.03, 155.09) 01/13/2016 03:03:57 ( 22.65, 152.09)
4 01/13/2016 15:32:15 ( 22.68, 152.31) 01/13/2016 15:35:50 ( 10.05, 149.31)
5 01/14/2016 02:41:20 ( 10.04, 159.84) 01/14/2016 02:44:55 ( 22.66, 156.85)
6 01/14/2016 15:13:12 ( 22.66, 157.06) 01/14/2016 15:16:47 ( 10.04, 154.07)
7 01/15/2016 02:22:16 ( 10.00, 164.61) 01/15/2016 02:25:52 ( 22.68, 161.60)
8 01/15/2016 14:54:09 ( 22.70, 161.83) 01/15/2016 14:57:45 ( 10.02, 158.82)
9 01/16/2016 03:44:44 ( 10.03, 143.99) 01/16/2016 03:48:19 ( 22.65, 140.99)
10 01/16/2016 14:36:15 ( 18.63, 165.60) 01/16/2016 14:38:41 ( 10.06, 163.59)
11 01/16/2016 16:16:36 ( 22.67, 141.21) 01/16/2016 16:18:36 ( 15.63, 139.51)
12 01/17/2016 03:25:41 ( 10.05, 148.75) 01/17/2016 03:29:16 ( 22.67, 145.75)
13 01/17/2016 15:57:34 ( 22.65, 145.97) 01/17/2016 16:01:09 ( 10.03, 142.97)
14 01/18/2016 03:06:38 ( 10.01, 153.51) 01/18/2016 03:10:14 ( 22.69, 150.50)
15 01/18/2016 15:38:30 ( 22.69, 150.73) 01/18/2016 15:42:06 ( 10.01, 147.72)
16 01/19/2016 02:47:35 ( 10.03, 158.27) 01/19/2016 02:51:10 ( 22.65, 155.27)
17 01/19/2016 15:19:28 ( 22.67, 155.49) 01/19/2016 15:23:03 ( 10.05, 152.49)
18 01/20/2016 02:28:33 ( 10.05, 163.02) 01/20/2016 02:32:08 ( 22.67, 160.03)
19 01/20/2016 15:00:26 ( 22.65, 160.24) 01/20/2016 15:04:01 ( 10.03, 157.25)
20 01/21/2016 02:12:09 ( 19.41, 165.59) 01/21/2016 02:13:05 ( 22.69, 164.78)
21 01/21/2016 03:50:59 ( 10.02, 142.41) 01/21/2016 03:54:28 ( 22.29, 139.51)
22 01/21/2016 14:41:22 ( 22.69, 165.01) 01/21/2016 14:44:58 ( 10.00, 162.00)
23 01/21/2016 16:22:52 ( 22.68, 139.63) 01/21/2016 16:23:01 ( 22.15, 139.50)
24 01/22/2016 03:31:57 ( 10.04, 147.17) 01/22/2016 03:35:32 ( 22.66, 144.17)
25 01/22/2016 16:03:50 ( 22.65, 144.39) 01/22/2016 16:07:25 ( 10.03, 141.39)
26 01/23/2016 03:12:53 ( 10.01, 151.94) 01/23/2016 03:16:29 ( 22.69, 148.92)
27 01/23/2016 15:44:46 ( 22.69, 149.16) 01/23/2016 15:48:22 ( 10.01, 146.15)
28 01/24/2016 02:53:51 ( 10.03, 156.69) 01/24/2016 02:57:26 ( 22.65, 153.69)
29 01/24/2016 15:25:44 ( 22.67, 153.91) 01/24/2016 15:29:19 ( 10.04, 150.91)
30 01/25/2016 02:34:48 ( 10.05, 161.44) 01/25/2016 02:38:23 ( 22.67, 158.45)


NCC Satellite Cal/Val Overpasses Prediction Service
